Погода в Фюгене

Австрия     47˚20′49″N   11˚50′57″E
темп.,
°C
ветер,
м/с
пор.,
м/с
влажн.,
%
обл.,
%
осадки,
мм/ч
давл.,
гПа
погр.,
м
17 января, вс
вс1701:00−12˚ююз1271100 0.0 102221
04:00−9˚ююз1174100 0.1 101922
07:00−9˚юз1196100 0.5 101832
10:00−7˚з1195100 1.6 1018117
13:00−5˚с1195100 3.0 1017210
16:00−5˚с2298100 1.6 1018206
19:00−6˚ссз1298100 4.0 102167
22:00−7˚с1298100 2.9 102390
18 января, пн
пн1801:00−7˚ссз1198100 4.7 102531
04:00−8˚зсз1197100 1.0 102528
07:00−10˚юз1296100 1.3 102724
10:00−7˚зюз119599 0.3 1027117
13:00−5˚зсз129298 0.4 1026364
16:00−7˚сз119681 0.3 102621
19:00−10˚ю229379 0.3 102927
22:00−11˚ю228781 0.0 102924
19 января, вт
вт1901:00−10˚ююз237490 0.0 102825
04:00−9˚ююз236136 0.0 102623
07:00−8˚ю335755 0.0 102525
10:00−3˚ююз236785 0.0 102254
13:00+1˚юз238786 0.0 1020107
16:00−1˚ююз2276100 0.0 101837
19:00−4˚ю236199 0.0 102025
22:00−4˚ю225997 0.0 102022
20 января, ср
ср2001:00−5˚ю226156 0.0 102025
04:00−5˚ю33635 0.0 101927
07:00−5˚ю336336 0.0 101933
10:00−2˚ю337343 0.0 101892
13:00ю468242 0.0 1015228
16:00−3˚ю578193 0.0 1013207
19:00−4˚ю587997 0.0 1014200
22:00−4˚ю587788 0.0 1013217
21 января, чт
чт2101:00−4˚ю697679 0.0 1012209
04:00−4˚ю697759 0.0 1010251
07:00−4˚ю587766 0.0 1010173
10:00−2˚ю597857 0.0 1010307
13:00+1˚ююз478541 0.0 1009364
16:00−1˚ю35820 0.0 1009158
19:00−3˚ю45821 0.0 101088
22:00−3˚ю4680100 0.0 1009140